Flag for Germany Weather past 2 weeks in Porta Westfalica, North Rhine-Westphalia, Germany

Now
81 °F

Passing clouds.


Feels Like: 82 °F
Forecast: 64 / 79 °F
Wind: 10 mph from East

Location: Bueckeburg

Current Time: Jul 28, 2014 at 4:54:07 PM

Latest Report: Jul 28, 2014 at 4:20 PM


Visibility: N/A

Pressure: 29.86 "Hg

Humidity: 54%

Dew point: 63 °F

Location of Porta WestfalicaLocation

Historic Weather in Porta Westfalica — Graph

°F

Porta Westfalica temperature yesterday

Maximum temperature yesterday: 79 °F (at 3:20 PM)
Minimum temperature yesterday: 61 °F (at 4:20 AM)
Average temperature yesterday: 71 °F

Past Weeks' High & Low Weather Summary

 TemperatureHumidityPressure
High91 °F (Jul 19, 4:20 PM)100% (Jul 21, 7:20 AM)30.18 "Hg (Jul 21, 7:20 AM)
Low57 °F (Jul 15, 2:20 AM)28% (Jul 19, 4:20 PM)29.68 "Hg (Jul 13, 6:20 PM)
Average70 °F71%29.98 "Hg
* Reported Jul 13 3:20 PM — Jul 28 3:20 PM, Porta Westfalica, Weather by CustomWeather, © 2014

Note: Actual official high and low records may vary slightly from our data, if they occured in-between our weather recording intervals... More about our weather records

Advertising

Porta Westfalica weather history for previous 24 hours

 ConditionsComfort  
Time TempWeatherWind HumidityBarometerVisibility
3:20 PM
Jul 28
79 °FPassing clouds.8 mph58%29.86 "HgN/A
2:20 PM79 °FScattered clouds.10 mph61%29.89 "HgN/A
1:20 PM77 °FScattered clouds.10 mph65%29.89 "HgN/A
12:20 PM75 °FPassing clouds.9 mph69%29.92 "HgN/A
11:20 AM73 °FPassing clouds.8 mph74%29.92 "HgN/A
10:20 AM72 °FScattered clouds.7 mph78%29.92 "HgN/A
9:54 AM72 °FScattered clouds.7 mph78%29.92 "Hg5 mi
9:20 AM70 °FFog.6 mph78%29.95 "Hg3 mi
8:46 AM68 °FFog.6 mph88%29.95 "Hg2 mi
8:20 AM68 °FFog.5 mph88%29.95 "Hg2 mi
7:45 AM64 °FFog.No wind94%29.95 "Hg2 mi
7:20 AM64 °FFog.2 mph94%29.95 "Hg2 mi
6:20 AM59 °FFog.No wind100%29.95 "Hg1 mi
5:20 AM61 °FFog.1 mph94%29.95 "Hg3 mi
4:20 AM61 °FFog.1 mph94%29.95 "Hg4 mi
3:20 AM61 °FPassing clouds.2 mph94%29.95 "Hg5 mi
2:20 AM63 °FPassing clouds.2 mph94%29.95 "Hg5 mi
1:20 AM63 °FPassing clouds.2 mph94%29.98 "HgN/A
12:20 AM64 °FPassing clouds.3 mph88%29.98 "HgN/A
11:20 PM
Jul 27
66 °FPassing clouds.3 mph83%29.98 "HgN/A
10:20 PM68 °FScattered clouds.1 mph83%29.98 "HgN/A
9:20 PM72 °FPartly sunny.No wind73%29.98 "HgN/A
8:20 PM73 °FScattered clouds.5 mph65%29.98 "HgN/A
7:20 PM77 °FPassing clouds.10 mph57%29.95 "HgN/A
6:20 PM79 °FWarm.8 mph54%29.95 "HgN/A
5:20 PM79 °FWarm.8 mph54%29.95 "HgN/A
4:20 PM79 °FWarm.13 mph51%29.95 "HgN/A
Weather by CustomWeather, © 2014

See weather overviewHow to use our weather pages